Location: Krakow
(50.0830°N, 19.9170°E)
Time: 11:56:25
(UTC+01:00)

SR - All Passes

Search period start: 15 March 2026 00:00
Search period end: 25 March 2026 00:00
Orbit: 572 x 849 km, 66.7° (Epoch: 14 March)

Date Brightness Start Highest point End Pass type
(mag) Time Alt. Az. Time Alt. Az. Time Alt. Az.
15 Mar - 01:23:26 10° NW 01:25:41 13° NNW 01:28:00 10° NNE visible
15 Mar - 03:07:19 10° NNW 03:09:33 13° NNE 03:11:51 10° NE visible
15 Mar - 04:48:31 10° NNW 04:52:54 28° NE 04:57:33 10° E visible
15 Mar - 06:29:52 10° NW 06:35:05 76° WSW 06:40:39 10° SSE daylight
15 Mar - 08:13:14 10° WNW 08:16:04 15° WSW 08:18:58 10° SW daylight
15 Mar - 21:02:33 10° SSE 21:05:56 22° ESE 21:09:28 10° ENE night (unlit)
15 Mar - 22:42:49 10° SW 22:47:10 57° NW 22:51:52 10° NNE visible
16 Mar - 00:26:51 10° WNW 00:29:55 17° NNW 00:33:08 10° NNE visible
16 Mar - 02:11:59 10° NNW 02:13:40 12° N 02:15:23 10° NNE visible
16 Mar - 03:53:44 10° NNW 03:57:22 19° NNE 04:01:09 10° ENE visible
16 Mar - 05:34:54 10° NNW 05:40:01 60° NE 05:45:31 10° SE daylight
16 Mar - 07:17:00 10° NW 07:21:29 29° WSW 07:26:12 10° S daylight
16 Mar - 21:47:47 10° SSW 21:52:08 72° ESE 21:56:50 10° NE night (unlit)
16 Mar - 23:30:34 10° W 23:34:19 25° NNW 23:38:19 10° NNE visible
17 Mar - 01:15:51 10° NNW 01:17:47 12° N 01:19:45 10° NNE visible
17 Mar - 02:58:54 10° NNW 03:01:38 14° NNE 03:04:28 10° NE visible
17 Mar - 04:40:03 10° NNW 04:44:47 36° NE 04:49:48 10° ESE visible
17 Mar - 06:21:35 10° NW 06:26:43 55° WSW 06:32:09 10° SSE daylight
17 Mar - 20:53:27 10° S 20:57:21 33° ESE 21:01:31 10° NE night (unlit)
17 Mar - 22:34:42 10° WSW 22:38:55 41° NW 22:43:29 10° NNE visible
18 Mar - 00:19:16 10° NW 00:21:57 15° NNW 00:24:44 10° NNE visible
18 Mar - 02:03:50 10° NNW 02:05:47 12° N 02:07:47 10° NNE visible
18 Mar - 03:45:15 10° NNW 03:49:20 23° NNE 03:53:38 10° E visible
18 Mar - 05:26:30 10° NW 05:31:45 81° NE 05:37:20 10° SE daylight
18 Mar - 07:09:06 10° WNW 07:12:58 20° WSW 07:16:58 10° SSW daylight
18 Mar - 20:00:13 10° SE 20:02:49 16° ESE 20:05:30 10° ENE night (unlit)
18 Mar - 21:39:21 10° SW 21:43:45 79° NW 21:48:32 10° NE visible
18 Mar - 23:22:49 10° WNW 23:26:15 20° NNW 23:29:53 10° NNE visible
19 Mar - 01:08:08 10° NNW 01:09:53 12° N 01:11:41 10° NNE visible
19 Mar - 02:50:27 10° NNW 02:53:41 17° NNE 02:57:04 10° ENE visible
19 Mar - 04:31:35 10° NNW 04:36:35 46° NE 04:41:55 10° ESE visible
19 Mar - 06:13:23 10° NW 06:18:17 39° WSW 06:23:26 10° S daylight
19 Mar - 20:44:37 10° SSW 20:48:51 49° ESE 20:53:24 10° NE night (unlit)
19 Mar - 22:26:43 10° WSW 22:30:44 31° NW 22:35:04 10° NNE visible
20 Mar - 00:11:42 10° NW 00:14:00 13° NNW 00:16:23 10° NNE visible
20 Mar - 01:55:31 10° NNW 01:57:53 13° NNE 02:00:20 10° NE visible
20 Mar - 03:36:46 10° NNW 03:41:14 29° NE 03:45:59 10° E visible
20 Mar - 05:18:09 10° NW 05:23:24 74° WSW 05:29:00 10° SSE daylight
20 Mar - 07:01:35 10° WNW 07:04:21 14° WSW 07:07:12 10° SW daylight
20 Mar - 19:50:43 10° SSE 19:54:10 23° ESE 19:57:51 10° ENE night (unlit)
20 Mar - 21:31:05 10° SW 21:35:26 56° NW 21:40:11 10° NNE visible
20 Mar - 23:15:09 10° WNW 23:18:14 17° NNW 23:21:28 10° NNE visible
21 Mar - 01:00:12 10° NNW 01:02:00 12° N 01:03:51 10° NNE visible
21 Mar - 02:41:58 10° NNW 02:45:41 20° NNE 02:49:35 10° ENE visible
21 Mar - 04:23:09 10° NNW 04:28:21 62° NE 04:33:52 10° SE visible
21 Mar - 06:05:17 10° NW 06:09:47 28° WSW 06:14:30 10° S daylight
21 Mar - 18:59:00 10° ESE 18:59:45 10° ESE 19:00:29 10° E night (unlit)
21 Mar - 20:36:00 10° SSW 20:40:23 74° SE 20:45:09 10° NE visible
21 Mar - 22:18:50 10° W 22:22:36 25° NNW 22:26:38 10° NNE visible
22 Mar - 00:04:05 10° NNW 00:06:05 12° N 00:08:09 10° NNE visible
22 Mar - 01:47:06 10° NNW 01:49:58 15° NNE 01:52:55 10° NE visible
22 Mar - 03:28:17 10° NNW 03:33:06 37° NE 03:38:12 10° ESE visible
22 Mar - 05:09:51 10° NW 05:15:01 53° WSW 05:20:28 10° SSE daylight
22 Mar - 19:41:37 10° S 19:45:35 34° ESE 19:49:51 10° NE visible
22 Mar - 21:22:56 10° WSW 21:27:11 40° NW 21:31:48 10° NNE visible
22 Mar - 23:07:32 10° NW 23:10:15 15° NNW 23:13:04 10° NNE visible
23 Mar - 00:52:02 10° NNW 00:54:06 12° N 00:56:14 10° NNE visible
23 Mar - 02:33:28 10° NNW 02:37:39 24° NNE 02:42:01 10° E visible
23 Mar - 04:14:45 10° NW 04:20:03 83° NE 04:25:40 10° SE visible
23 Mar - 05:57:23 10° WNW 06:01:14 20° WSW 06:05:13 10° SSW daylight
23 Mar - 18:48:18 10° SE 18:51:02 16° ESE 18:53:53 10° ENE visible
23 Mar - 20:27:34 10° SW 20:32:00 77° NW 20:36:50 10° NE visible
23 Mar - 22:11:04 10° WNW 22:14:32 20° NNW 22:18:12 10° NNE visible
23 Mar - 23:56:20 10° NNW 23:58:11 12° N 00:00:06 10° NNE visible
24 Mar - 01:38:38 10° NNW 01:41:59 17° NNE 01:45:28 10° ENE visible
24 Mar - 03:19:49 10° NNW 03:24:53 48° NE 03:30:16 10° ESE visible
24 Mar - 05:01:38 10° NW 05:06:34 38° WSW 05:11:43 10° S visible
24 Mar - 19:32:48 10° SSW 19:37:04 51° ESE 19:41:41 10° NE visible
24 Mar - 21:14:57 10° W 21:18:59 31° NW 21:23:22 10° NNE visible
24 Mar - 22:59:55 10° NW 23:02:18 13° NNW 23:04:44 10° NNE visible
